User: anonymous   Login
Location: Pian di Sc�
(43.6333°N, 11.5500°E)
Time: 10:52:04
(UTC+00:00)
Language:

Cosmos 1674 - Orbit

View from above orbital plane
View from above orbital plane
View from above satellite
View from above satellite

Ground track
Ground track

The orbit data is extracted from the following two-line orbital elements,

1 15944U 85069A   20304.90890335 +.00001033 +00000-0 +46325-4 0  9998
2 15944 082.5063 087.6125 0017441 156.4284 203.7754 15.19938933924751
Epoch (UTC): 30 October 2020 21:48:49
Eccentricity: 0.0017441
inclination: 82.5063°
perigee height: 494 km
apogee height: 518 km
right ascension of ascending node: 87.6125°
argument of perigee: 156.4284°
revolutions per day: 15.19938933
mean anomaly at epoch: 203.7754°
orbit number at epoch: 92475

The dashed part of the orbit path shows where the satellite is in the earth's shadow,  

DLR